Погода в Кляуше

Россия / Республика Татарстан     56°00′29″N   51°15′38″E
темп.,
°C
ветер,
м/с
пор.,
м/с
влажн.,
%
обл.,
%
осадки,
мм/ч
давл.,
гПа
погр.,
м
10 августа, ср
ср1000:00+19з1186100 0.0 101811
03:00+17юв11913 0.7 101811
06:00+19ююз018469 0.0 101866
09:00+24з1165100 0.0 1018468
12:00+27зсз2254100 0.0 10181201
15:00+27зсз445269 0.0 10171861
18:00+23зсз476635 0.0 1017212
21:00+18ссз5108695 0.0 1018271
11 августа, чт
чт1100:00+16ссз498798 0.0 1020340
03:00+14ссз498291 0.0 1021323
06:00+14ссз497621 0.0 1022336
09:00+18ссз585684 0.0 1023801
12:00+21сз6848100 0.0 10231338
15:00+21ссз6750100 0.0 10231556
18:00+18с476212 0.0 1023280
21:00+13ссз11750 0.0 102411
12 августа, пт
пт1200:00+13з22770 0.0 102411
03:00+12зсз22782 0.0 102411
06:00+14з237179 0.0 102598
09:00+20з3454100 0.0 1024729
12:00+23з4547100 0.0 10231857
15:00+23зсз564691 0.0 10221724
18:00+21з35630 0.0 102189
21:00+16з33740 0.0 102236
13 августа, сб
сб1300:00+14з33800 0.0 102141
03:00+14з36810 0.0 102190
06:00+16з39740 0.0 1021243
09:00+22зсз57575 0.0 1021660
12:00+25сз564978 0.0 10211683
15:00+25ссз574717 0.0 10211927
18:00+21сз37615 0.0 1021191
21:00+16ссв35765 0.0 102279
14 августа, вс
вс1400:00+13ссв227552 0.0 102312
03:00+12ссв227544 0.0 102413
06:00+14ссв23695 0.0 102599
09:00+20св224920 0.0 1025635
12:00+23ссв123871 0.0 10241639
15:00+23ссз223514 0.0 10231874
18:00+20ссв235568 0.0 102336
21:00+15в1161100 0.0 102311